Weather History for Thief River Falls, MN

Change the Weather History Date:

Sunday, March 30, 2014

  Actual Average Record
Temperature  
Mean Temperature 38 °F -  
Max Temperature 42 °F 38 °F 60 °F (1990)
Min Temperature 33 °F 23 °F -16 °F (1975)
Degree Days  
Heating Degree Days 28    
Moisture  
Dew Point 29 °F    
Average Humidity 71    
Maximum Humidity 87    
Minimum Humidity 61    
Precipitation  
Precipitation 0.00 in - - ()
Sea Level Pressure  
Sea Level Pressure 29.83 in    
Wind  
Wind Speed 11 mph (NW)    
Max Wind Speed 20 mph    
Max Gust Speed 26 mph    
Visibility 10 miles    
Events      
Averages and records for this station are not official NWS values.
T = Trace of Precipitation, MM = Missing Value Source: NWS Daily Summary

Daily Weather History Graph

Daily Weather History Graph

Search for Another Location

Airport:

Trip Planner

Search our weather history database for the weather conditions in past years. The results will help you decide how hot, cold, wet, or windy it might be!

Date:

Astronomy

Mar. 30, 2014 Rise Set
Actual Time 7:06 AM CDT 7:52 PM CDT
Civil Twilight 6:35 AM CDT 8:23 PM CDT
Nautical Twilight 5:58 AM CDT 9:01 PM CDT
Astronomical Twilight 5:19 AM CDT 9:40 PM CDT
Moon 6:53 AM CDT 8:08 PM CDT
Length of Visible Light 13h 47m
Length of Day
12h 45m
Waning Crescent, 0% of the Moon is Illuminated
Mar 30
Waning Crescent
Mar 30
New
Apr 7
First Quarter
Apr 15
Full
Apr 22
Last Quarter

Hourly Weather History & Observations

Time (CDT) Temp. Windchill Dew Point Humidity Pressure Visibility Wind Dir Wind Speed Gust Speed Precip Events Conditions
12:15 AM 35.6 °F 27.1 °F 28.4 °F 75% 29.80 in 10.0 mi SSE 12.7 mph 17.3 mph N/A   Scattered Clouds
12:35 AM 35.6 °F 27.1 °F 28.4 °F 75% 29.78 in 10.0 mi SSE 12.7 mph - N/A   Mostly Cloudy
12:55 AM 35.6 °F 27.5 °F 28.4 °F 75% 29.78 in 10.0 mi SSE 11.5 mph - N/A   Overcast
1:15 AM 35.6 °F 27.5 °F 28.4 °F 75% 29.77 in 10.0 mi SSE 11.5 mph - N/A   Overcast
1:35 AM 35.6 °F 27.1 °F 28.4 °F 75% 29.76 in 10.0 mi SSE 12.7 mph - N/A   Overcast
1:55 AM 35.6 °F 27.5 °F 28.4 °F 75% 29.76 in 10.0 mi South 11.5 mph - N/A   Mostly Cloudy
2:15 AM 35.6 °F 27.1 °F 28.4 °F 75% 29.74 in 10.0 mi SSE 12.7 mph - N/A   Scattered Clouds
2:35 AM 35.6 °F 27.5 °F 28.4 °F 75% 29.74 in 10.0 mi South 11.5 mph - N/A   Scattered Clouds
2:55 AM 35.6 °F 28.6 °F 28.4 °F 75% 29.73 in 10.0 mi South 9.2 mph - N/A   Mostly Cloudy
3:15 AM 35.6 °F 27.1 °F 30.2 °F 81% 29.73 in 10.0 mi South 12.7 mph - N/A   Overcast
3:35 AM 37.4 °F 29.8 °F 30.2 °F 75% 29.73 in 10.0 mi SSW 11.5 mph - N/A   Overcast
3:55 AM 35.6 °F 28.0 °F 30.2 °F 81% 29.73 in 10.0 mi SSW 10.4 mph - N/A   Overcast
4:15 AM 35.6 °F 28.6 °F 28.4 °F 75% 29.73 in 10.0 mi South 9.2 mph - N/A   Overcast
4:35 AM 35.6 °F 29.2 °F 30.2 °F 81% 29.74 in 10.0 mi SSW 8.1 mph - N/A   Overcast
4:55 AM 35.6 °F 29.9 °F 30.2 °F 81% 29.73 in 10.0 mi South 6.9 mph - N/A   Overcast
5:15 AM 35.6 °F 30.7 °F 30.2 °F 81% 29.71 in 10.0 mi SSE 5.8 mph - N/A   Overcast
5:35 AM 35.6 °F 31.7 °F 30.2 °F 81% 29.73 in 10.0 mi South 4.6 mph - N/A   Overcast
5:55 AM 35.6 °F 29.9 °F 30.2 °F 81% 29.73 in 10.0 mi South 6.9 mph - N/A   Overcast
6:15 AM 35.6 °F 29.9 °F 28.4 °F 75% 29.73 in 10.0 mi South 6.9 mph - N/A   Mostly Cloudy
6:35 AM 35.6 °F 28.6 °F 28.4 °F 75% 29.73 in 10.0 mi South 9.2 mph - N/A   Clear
6:55 AM 33.8 °F 27.7 °F 30.2 °F 87% 29.74 in 9.0 mi SSW 6.9 mph - N/A   Clear
7:15 AM 33.8 °F 28.6 °F 28.4 °F 81% 29.76 in 8.0 mi SSW 5.8 mph - N/A   Clear
7:35 AM 35.6 °F 29.9 °F 28.4 °F 75% 29.76 in 9.0 mi SSW 6.9 mph - N/A   Clear
7:55 AM 35.6 °F 30.7 °F 28.4 °F 75% 29.77 in 8.0 mi SSW 5.8 mph - N/A   Clear
8:15 AM 35.6 °F 29.2 °F 28.4 °F 75% 29.79 in 10.0 mi SW 8.1 mph - N/A   Clear
8:35 AM 35.6 °F 29.2 °F 28.4 °F 75% 29.80 in 10.0 mi WSW 8.1 mph - N/A   Clear
8:55 AM 35.6 °F 29.2 °F 28.4 °F 75% 29.80 in 9.0 mi WSW 8.1 mph - N/A   Clear
9:15 AM 37.4 °F 32.8 °F 30.2 °F 75% 29.81 in 9.0 mi WSW 5.8 mph - N/A   Clear
9:35 AM 37.4 °F 32.1 °F 30.2 °F 75% 29.80 in 10.0 mi West 6.9 mph - N/A   Clear
9:55 AM 37.4 °F 32.8 °F 30.2 °F 75% 29.81 in 10.0 mi West 5.8 mph - N/A   Clear
10:15 AM 37.4 °F 31.4 °F 30.2 °F 75% 29.82 in 10.0 mi West 8.1 mph - N/A   Clear
10:35 AM 37.4 °F 32.8 °F 30.2 °F 75% 29.82 in 10.0 mi WNW 5.8 mph - N/A   Clear
10:55 AM 39.2 °F 35.0 °F 30.2 °F 70% 29.84 in 10.0 mi NW 5.8 mph - N/A   Clear
11:15 AM 39.2 °F 35.9 °F 30.2 °F 70% 29.84 in 10.0 mi NW 4.6 mph - N/A   Clear
11:35 AM 39.2 °F 34.2 °F 30.2 °F 70% 29.84 in 10.0 mi NW 6.9 mph - N/A   Clear
11:55 AM 39.2 °F 34.2 °F 30.2 °F 70% 29.85 in 10.0 mi NW 6.9 mph - N/A   Clear
12:15 PM 41.0 °F 36.4 °F 30.2 °F 65% 29.86 in 10.0 mi West 6.9 mph - N/A   Clear
12:35 PM 39.2 °F 34.2 °F 30.2 °F 70% 29.87 in 10.0 mi WNW 6.9 mph - N/A   Clear
12:55 PM 39.2 °F 33.0 °F 30.2 °F 70% 29.87 in 10.0 mi NW 9.2 mph - N/A   Clear
1:15 PM 39.2 °F 33.6 °F 30.2 °F 70% 29.87 in 10.0 mi NW 8.1 mph - N/A   Clear
1:35 PM 42.8 °F 37.0 °F 30.2 °F 61% 29.89 in 10.0 mi NNE 10.4 mph - N/A   Clear
1:55 PM 42.8 °F 37.0 °F 30.2 °F 61% 29.88 in 10.0 mi North 10.4 mph - N/A   Clear
2:15 PM 42.8 °F 36.6 °F 30.2 °F 61% 29.88 in 10.0 mi North 11.5 mph - N/A   Clear
2:35 PM 42.8 °F 36.2 °F 30.2 °F 61% 29.88 in 10.0 mi North 12.7 mph - N/A   Clear
2:55 PM 41.0 °F 34.3 °F 28.4 °F 61% 29.87 in 10.0 mi North 11.5 mph - N/A   Clear
3:15 PM 41.0 °F 33.9 °F 28.4 °F 61% 29.87 in 10.0 mi North 12.7 mph - N/A   Clear
3:35 PM 42.8 °F 37.0 °F 30.2 °F 61% 29.87 in 10.0 mi North 10.4 mph - N/A   Clear
3:55 PM 42.8 °F 36.6 °F 30.2 °F 61% 29.87 in 10.0 mi North 11.5 mph - N/A   Clear
4:15 PM 42.8 °F 36.6 °F 30.2 °F 61% 29.86 in 10.0 mi North 11.5 mph - N/A   Clear
4:35 PM 42.8 °F 37.5 °F 30.2 °F 61% 29.86 in 10.0 mi North 9.2 mph - N/A   Clear
4:55 PM 42.8 °F 36.2 °F 30.2 °F 61% 29.86 in 10.0 mi North 12.7 mph - N/A   Clear
5:15 PM 42.8 °F 35.8 °F 30.2 °F 61% 29.87 in 10.0 mi North 13.8 mph - N/A   Clear
5:35 PM 41.0 °F 33.9 °F 30.2 °F 65% 29.88 in 10.0 mi North 12.7 mph - N/A   Clear
5:55 PM 41.0 °F 34.7 °F 30.2 °F 65% 29.89 in 10.0 mi North 10.4 mph - N/A   Clear
6:15 PM 41.0 °F 35.2 °F 30.2 °F 65% 29.89 in 10.0 mi North 9.2 mph - N/A   Clear
6:35 PM 39.2 °F 32.5 °F 28.4 °F 65% 29.90 in 10.0 mi North 10.4 mph - N/A   Clear
6:55 PM 39.2 °F 32.5 °F 30.2 °F 70% 29.91 in 10.0 mi NNE 10.4 mph - N/A   Partly Cloudy
7:15 PM 39.2 °F 32.5 °F 30.2 °F 70% 29.91 in 10.0 mi North 10.4 mph - N/A   Scattered Clouds
7:35 PM 37.4 °F 30.8 °F 30.2 °F 75% 29.92 in 10.0 mi NNE 9.2 mph - N/A   Scattered Clouds
7:55 PM 39.2 °F 31.2 °F 30.2 °F 70% 29.92 in 10.0 mi NNE 13.8 mph 17.3 mph N/A   Scattered Clouds
8:15 PM 37.4 °F 28.5 °F 28.4 °F 70% 29.93 in 10.0 mi NNE 15.0 mph - N/A   Scattered Clouds
8:35 PM 37.4 °F 29.3 °F 28.4 °F 70% 29.94 in 10.0 mi NNE 12.7 mph - N/A   Mostly Cloudy
8:55 PM 37.4 °F 29.3 °F 28.4 °F 70% 29.94 in 10.0 mi NE 12.7 mph - N/A   Mostly Cloudy
9:15 PM 37.4 °F 27.8 °F 28.4 °F 70% 29.93 in 10.0 mi NNE 17.3 mph - N/A   Overcast
9:35 PM 37.4 °F 28.5 °F 28.4 °F 70% 29.93 in 10.0 mi NNE 15.0 mph - N/A   Overcast
9:55 PM 37.4 °F 28.5 °F 28.4 °F 70% 29.93 in 10.0 mi NNE 15.0 mph - N/A   Overcast
10:15 PM 37.4 °F 28.2 °F 28.4 °F 70% 29.93 in 10.0 mi NNE 16.1 mph 21.9 mph N/A   Overcast
10:35 PM 37.4 °F 27.8 °F 28.4 °F 70% 29.93 in 10.0 mi NNE 17.3 mph 20.7 mph N/A   Overcast
10:55 PM 35.6 °F 25.2 °F 28.4 °F 75% 29.92 in 10.0 mi North 18.4 mph 24.2 mph N/A   Overcast
11:15 PM 35.6 °F 26.6 °F 28.4 °F 75% 29.93 in 10.0 mi NNE 13.8 mph - N/A   Overcast
11:35 PM 35.6 °F 25.5 °F 26.6 °F 70% 29.93 in 10.0 mi NNE 17.3 mph 21.9 mph N/A   Overcast
11:55 PM 35.6 °F 24.8 °F 26.6 °F 70% 29.93 in 10.0 mi NNE 19.6 mph 26.5 mph N/A   Overcast